Regional Weather Roundup
Issued by NWS

Home | Current Version | Previous Version | Text Only | Print | Product List | Glossary On
Versions: 1 2 3 4 5 6 7 8 9 10 11 12 13 14 15 16 17 18 19 20 21 22 23 24 25 26 27 28 29 30 31 32 33 34 35 36 37 38 39 40 41 42 43 44 45 46 47 48 49 50
000
ASUS43 KMKX 010511
RWRWI

WISCONSIN REGIONAL WEATHER ROUNDUP
NATIONAL WEATHER SERVICE MILWAUKEE/SULLIVAN WI
1200 AM CDT WED JUL 01 2015

NOTE: "FAIR" INDICATES FEW OR NO CLOUDS BELOW 12,000 FEET WITH NO
SIGNIFICANT WEATHER AND/OR OBSTRUCTIONS TO VISIBILITY.

WIZ001-002-006>008-014>016-023>028-010600-
NORTHWEST WISCONSIN

CITY           SKY/WX    TMP DP  RH WIND       PRES   REMARKS
SUPERIOR ARPT  PTCLDY    53  51  95 NE5       29.99S
ASHLAND        NOT AVBL
HAYWARD        NOT AVBL
SIREN          PTCLDY    56  51  81 CALM      29.98S
CUMBERLAND     PTCLDY    54  50  87 CALM      29.98S
RICE LAKE      PTCLDY    55  49  80 NE3       30.00S
CHETEK         PTCLDY    57  51  80 NE3       29.99R
LADYSMITH      CLEAR     52  48  87 CALM      30.00F
EAU CLAIRE     CLEAR     54  48  80 NE7       29.96S
MENOMONIE      CLEAR     59  48  67 NE3       29.97S
NEW RICHMOND   CLEAR     57  51  79 E6        29.97S
OSCEOLA        PTCLDY    59  53  80 E3        29.99S
$$

WIZ003>005-009-010-017-018-010600-
NORTH CENTRAL WISCONSIN

CITY           SKY/WX    TMP DP  RH WIND       PRES   REMARKS
MANITOWISH WTR CLEAR     41  41 100 CALM      30.00S
ARBOR VITAE    CLEAR     44  42  92 CALM      29.99F
WOODRUFF       CLEAR     44  42  92 CALM      29.99F
RHINELANDER    FOG       42  41  96 W3        29.99S VSB 1/2
EAGLE RIVER    CLEAR     44  43  99 CALM      29.98R
LAND O LAKES   CLEAR     40  40  99 CALM      30.00R
PHILLIPS       PTCLDY    43  42  97 CALM      29.99S
TOMAHAWK       CLEAR     41  40  96 CALM      30.00F
MEDFORD        CLEAR     47  44  91 NE5       29.98S
MERRILL        CLEAR     44  44  98 CALM      29.99S
$$

WIZ029-030-035-036-043>047-010600-
CENTRAL WISCONSIN

CITY           SKY/WX    TMP DP  RH WIND       PRES   REMARKS
WAUSAU         NOT AVBL
MOSINEE        CLEAR     52  46  82 N7        29.98F
MARSHFIELD     NOT AVBL
STEVENS POINT  CLEAR     49  46  88 CALM      29.97S
WAUPACA        CLEAR     56  48  74 N7        29.96S
WAUTOMA        CLEAR     59  55  86 CALM      29.96R
WISC RAPIDS    NOT AVBL
CAMP DOUGLAS   CLEAR     54  54 100 NE5       29.94S
$$

WIZ011>013-019>022-031-037>040-048>050-010600-
NORTHEAST WISCONSIN

CITY           SKY/WX    TMP DP  RH WIND       PRES   REMARKS
ANTIGO         CLEAR     45  45  99 CALM      29.98S
SHAWANO        CLEAR     53  46  79 N3        29.96S
OCONTO         CLOUDY    51  49  95 NW3       29.94S
STURGEON BAY   NOT AVBL
GREEN BAY      NOT AVBL
MANITOWOC      CLOUDY    57  50  77 MISG      29.94S
APPLETON       CLEAR     52  45  76 N9        29.96S
CLINTONVILLE   CLEAR     52  46  82 N3        29.96S
OSHKOSH        NOT AVBL
$$

WIZ032>034-041-042-053>061-010600-
SOUTHWEST WISCONSIN

CITY           SKY/WX    TMP DP  RH WIND       PRES   REMARKS
LA CROSSE      NOT AVBL
SPARTA         CLEAR     52  51  96 CALM      29.95F
VIROQUA        CLEAR     57  56  96 CALM      29.95S
BOSCOBEL       CLEAR     57  55  93 CALM      29.93F FOG
PRAIRIE DU CHI PTCLDY    61  58  91 CALM      29.93S
PLATTEVILLE    PTCLDY    59  57  93 NE7       29.93S
$$

WIZ056-057-062-063-064-067-068-010600-
SOUTH CENTRAL WISCONSIN

CITY           SKY/WX    TMP DP  RH WIND       PRES   REMARKS
REEDSBURG      PTCLDY    56  53  90 W5        29.93F
BARABOO/DELLS  MOCLDY    60  52  73 CALM      29.93S
LONE ROCK      CLEAR     57  53  86 CALM      29.93F
MINERAL POINT  CLEAR     59  54  82 N6        29.94S
MADISON        NOT AVBL
MIDDLETON      PTCLDY    60  56  86 N6        29.93S
WATERTOWN      MOCLDY    56  56 100 E5        29.92S
MONROE         PTCLDY    63  55  77 N9G17     29.92R
JANESVILLE     MOCLDY    61  59  94 E6        29.92R
$$

WIZ051-052-058>065-066-070>072-010600-
SOUTHEAST WISCONSIN

CITY           SKY/WX    TMP DP  RH WIND       PRES   REMARKS
MILWAUKEE      NOT AVBL
WAUKESHA       MOCLDY    52  50  93 E5        29.94S
MILWAUKEE/TIMM CLOUDY    54  46  76 NE6       29.95S
RACINE         NOT AVBL
BURLINGTON     CLEAR     53  50  92 E6        29.93S
KENOSHA        NOT AVBL
FOND DU LAC    NOT AVBL
SHEBOYGAN      NOT AVBL
WEST BEND      CLOUDY    54  50  87 NE3       29.94S
JUNEAU         CLOUDY    59  56  90 CALM      29.94R
$$

LSZ147-162-010600-
LAKE SUPERIOR

STATION/POSITION TIME  TEMP    WIND        PRES    WAVE
                       AIR SEA DIR/SP/G            HT/PER
                 (UTC) (F)     (DEG/KT/KT) (MB)    (FT/S)
W MID LAKE BUOY  0450   44 38  290/  4/  4 1016.5S   1/ 5
DEVILS ISLAND    0500   54     100/  8/  8 1016.0F
SAXON HARBOR     0400   47        CALM     1015.9
$$

LMZ867-665-643>646-010600-
LAKE MICHIGAN

STATION/POSITION TIME  TEMP    WIND        PRES    WAVE
                       AIR SEA DIR/SP/G            HT/PER
                 (UTC) (F)     (DEG/KT/KT) (MB)    (FT/S)
CHAMBERS ISLAND  0400   56     310/ 12/ 15 1013.9R
S GREEN BAY BUOY 0500   58 69  340/ 14/ 17 1014.8
N MID LAKE BUOY  0450   46 41  320/ 12/ 14 1012.7F   2/ 4
NORTHPORT PIER   0400   53     340/ 15/ 19 1013.2F
SISTER BAY       0414   54     360/ 17/ 20   N/A
ALGOMA LAKESHORE 0410          310/  6/ 11   N/A
KEWAUNEE LAKESHO 0400   57     340/  6/ 10 1013.0S
SHEBOYGAN LAKESH 0500   54      20/  8/  9 1013.7F
PORT WASHINGTON  0400   55      20/  3/  6 1014.6R
ATWATER BUOY     0500   55      20/ 12/ 14 1014.9F
MILWAUKEE LAKESH 0400   55      20/ 11/ 13   N/A
KENOSHA   LAKESH 0500   56      20/ 12/ 15 1013.2F
$$

TC  - TEMPERATURE IN CELSIUS
VSB - VISIBILITY IN STATUTE MILES
WCI - WIND CHILL INDEX
HX  - HEAT INDEX



USA.gov is the U.S. government's official web portal to all federal, state and local government web resources and services.